Location: Waco, TX
(31.5480°N, 97.1670°W)
Time: 03:07:01
(UTC-06:00)

ISS - Pass Details

Date: 08 January 2018
Orbit: 402 x 407 km, 51.6° (Epoch: 21 January)

Event Time Altitude Azimuth Distance (km) Brightness Sun altitude
Rises 02:27:19 0° 254° (WSW) 2,305 - -63.4°
Reaches altitude 10° 02:29:44 10° 272° (W) 1,451 - -62.9°
Maximum altitude 02:32:16 21° 323° (NW) 978 - -62.4°
Drops below altitude 10° 02:34:49 10° 14° (NNE) 1,458 - -61.9°
Sets 02:37:15 0° 32° (NNE) 2,321 - -61.4°
